QPF
0.00 0.00 0.00 0.00 0.00 0.00 0.00 0.01 0.01 0.00 0.00 0.00 0.00 0.00 0.00 0.03 0.04 0.07 0.20 0.19 0.22 0.22 0.09 0.03 0.01 0.02 0.02 0.01 0.00 0.00 0.00 0.00 0.00 0.00 0.00 0.00 0.00 0.00
0.00 0.00 0.00 0.00 0.00 0.00 0.00 0.00 0.00 0.01 0.00 0.00 0.00 0.00 0.00 0.00 0.02 0.03 0.10 0.20 0.14 0.25 0.17 0.06 0.03 0.02 0.02 0.02 0.01 0.00 0.00 0.00 0.00 0.00 0.00 0.00 0.00 0.00
0.00 0.00 0.00 0.00 0.00 0.00 0.00 0.00 0.00 0.00 0.00 0.00 0.00 0.00 0.00 0.00 0.01 0.05 0.16 0.21 0.19 0.16 0.23 0.15 0.06 0.02 0.02 0.02 0.02 0.00 0.00 0.00 0.00 0.00 0.01 0.00 0.00 0.00
0.00 0.00 0.00 0.00 0.00 0.00 0.00 0.00 0.00 0.00 0.00 0.00 0.00 0.00 0.00 0.00 0.01 0.03 0.26 0.34 0.21 0.23 0.16 0.17 0.10 0.05 0.02 0.02 0.02 0.02 0.00 0.00 0.00 0.00 0.00 0.02 0.02 0.00
0.00 0.00 0.00 0.00 0.00 0.00 0.00 0.00 0.00 0.00 0.00 0.00 0.00 0.00 0.01 0.01 0.02 0.01 0.03 0.27 0.24 0.18 0.22 0.21 0.14 0.08 0.06 0.04 0.01 0.01 0.03 0.01 0.00 0.00 0.00 0.00 0.03 0.04
0.00 0.00 0.00 0.00 0.00 0.01 0.01 0.00 0.00 0.00 0.00 0.00 0.00 0.00 0.00 0.01 0.03 0.02 0.02 0.44 0.67 0.40 0.35 0.16 0.12 0.10 0.09 0.06 0.05 0.01 0.02 0.04 0.01 0.00 0.00 0.00 0.00 0.00
0.00 0.00 0.00 0.00 0.00 0.00 0.01 0.01 0.01 0.01 0.00 0.00 0.00 0.00 0.00 0.01 0.02 0.03 0.01 0.03 0.23 0.51 0.45 0.50 0.40 0.10 0.07 0.08 0.06 0.05 0.06 0.04 0.02 0.01 0.00 0.00 0.00 0.00
0.00 0.00 0.00 0.00 0.00 0.00 0.01 0.01 0.01 0.01 0.01 0.00 0.00 0.00 0.00 0.01 0.02 0.03 0.03 0.02 0.05 0.09 0.19 0.36 0.47 0.26 0.05 0.03 0.04 0.02 0.02 0.01 0.01 0.01 0.01 0.01 0.01 0.01
0.00 0.00 0.00 0.00 0.00 0.01 0.01 0.00 0.00 0.00 0.00 0.00 0.00 0.00 0.00 0.00 0.02 0.04 0.05 0.03 0.04 0.06 0.09 0.11 0.18 0.18 0.06 0.06 0.04 0.02 0.01 0.01 0.01 0.01 0.01 0.02 0.02 0.03
0.00 0.00 0.00 0.00 0.00 0.01 0.00 0.00 0.00 0.00 0.00 0.00 0.00 0.00 0.00 0.00 0.01 0.03 0.04 0.10 0.16 0.23 0.28 0.22 0.11 0.10 0.05 0.05 0.08 0.03 0.02 0.02 0.02 0.02 0.02 0.02 0.02 0.03
0.00 0.00 0.00 0.00 0.00 0.00 0.01 0.01 0.00 0.00 0.00 0.00 0.00 0.00 0.00 0.00 0.01 0.07 0.05 0.07 0.18 0.21 0.26 0.35 0.27 0.14 0.09 0.05 0.04 0.04 0.02 0.02 0.04 0.04 0.04 0.03 0.03 0.02
0.00 0.00 0.00 0.00 0.01 0.01 0.02 0.02 0.01 0.00 0.00 0.00 0.00 0.00 0.00 0.00 0.04 0.20 0.22 0.11 0.06 0.13 0.15 0.17 0.31 0.28 0.16 0.12 0.05 0.02 0.02 0.03 0.04 0.05 0.05 0.05 0.03 0.01
0.01 0.00 0.00 0.01 0.01 0.01 0.01 0.02 0.03 0.01 0.00 0.00 0.00 0.00 0.00 0.00 0.01 0.14 0.30 0.30 0.16 0.05 0.02 0.06 0.08 0.17 0.23 0.11 0.05 0.04 0.02 0.01 0.02 0.03 0.05 0.06 0.04 0.02
0.01 0.01 0.02 0.02 0.01 0.00 0.01 0.01 0.00 0.00 0.00 0.00 0.00 0.00 0.00 0.00 0.00 0.02 0.09 0.24 0.34 0.17 0.02 0.01 0.03 0.03 0.07 0.12 0.02 0.02 0.02 0.01 0.00 0.01 0.01 0.02 0.03 0.03
0.00 0.01 0.01 0.01 0.02 0.02 0.02 0.01 0.01 0.01 0.01 0.01 0.01 0.00 0.00 0.00 0.01 0.02 0.01 0.08 0.37 0.46 0.17 0.03 0.01 0.03 0.04 0.04 0.03 0.02 0.02 0.01 0.00 0.01 0.01 0.01 0.00 0.00
0.00 0.00 0.00 0.01 0.02 0.03 0.03 0.02 0.01 0.02 0.04 0.05 0.05 0.04 0.02 0.02 0.01 0.01 0.01 0.01 0.12 0.55 0.46 0.09 0.01 0.01 0.02 0.03 0.03 0.03 0.02 0.01 0.00 0.00 0.00 0.00 0.00 0.00
0.00 0.00 0.00 0.00 0.01 0.01 0.01 0.01 0.02 0.03 0.06 0.09 0.14 0.17 0.16 0.12 0.06 0.02 0.02 0.02 0.03 0.17 0.62 0.30 0.06 0.04 0.02 0.02 0.01 0.01 0.00 0.00 0.00 0.00 0.00 0.00 0.00 0.00
0.00 0.00 0.00 0.00 0.01 0.02 0.03 0.03 0.02 0.06 0.11 0.16 0.19 0.24 0.28 0.28 0.27 0.19 0.09 0.04 0.02 0.04 0.23 0.48 0.30 0.14 0.11 0.08 0.10 0.01 0.00 0.00 0.00 0.00 0.00 0.00 0.00 0.00
0.00 0.00 0.00 0.01 0.01 0.02 0.04 0.05 0.06 0.09 0.14 0.17 0.20 0.19 0.24 0.27 0.33 0.29 0.24 0.16 0.07 0.04 0.10 0.24 0.45 0.52 0.27 0.09 0.08 0.06 0.01 0.02 0.02 0.02 0.03 0.02 0.03 0.02
0.00 0.00 0.00 0.00 0.01 0.02 0.04 0.06 0.07 0.08 0.12 0.15 0.19 0.18 0.16 0.19 0.22 0.24 0.15 0.14 0.16 0.06 0.07 0.17 0.25 0.28 0.47 0.30 0.14 0.07 0.05 0.04 0.06 0.08 0.12 0.14 0.17 0.23
0.00 0.00 0.00 0.00 0.01 0.01 0.03 0.04 0.06 0.09 0.12 0.13 0.12 0.16 0.14 0.11 0.12 0.14 0.18 0.14 0.10 0.05 0.06 0.09 0.16 0.18 0.15 0.22 0.35 0.34 0.26 0.17 0.13 0.10 0.11 0.17 0.24 0.29
0.00 0.00 0.00 0.00 0.00 0.01 0.01 0.02 0.04 0.05 0.08 0.10 0.10 0.10 0.12 0.11 0.11 0.12 0.13 0.12 0.06 0.04 0.05 0.06 0.09 0.11 0.09 0.10 0.16 0.27 0.32 0.34 0.24 0.15 0.13 0.13 0.16 0.18
0.01 0.01 0.01 0.00 0.00 0.01 0.00 0.01 0.02 0.03 0.05 0.08 0.08 0.09 0.09 0.10 0.10 0.09 0.09 0.08 0.06 0.06 0.06 0.06 0.07 0.08 0.08 0.08 0.12 0.15 0.19 0.22 0.23 0.23 0.27 0.20 0.10 0.07
MSLP
1016.31 1015.86 1015.54 1015.15 1014.63 1013.87 1013.23 1012.58 1011.41 1008.63 1006.77 1006.58 1005.97 1005.11 1003.56 1002.33 1001.24 1001.33 1001.69 1001.83 1001.79 1002.18 1002.81 1003.09 1003.58 1004.00 1005.59 1006.56 1007.31 1008.29 1009.07 1009.93 1010.62 1011.29 1011.92 1012.56 1013.29 1013.63
1016.40 1015.94 1015.56 1014.96 1014.41 1013.92 1013.27 1012.32 1011.52 1010.00 1007.09 1007.01 1005.93 1005.45 1004.26 1002.49 1001.28 1000.44 1000.35 1000.67 1000.95 1001.24 1001.49 1002.24 1002.72 1003.57 1004.07 1005.45 1006.40 1007.09 1008.05 1008.93 1009.61 1010.34 1011.00 1011.55 1012.36 1012.70
1016.56 1016.06 1015.38 1014.80 1013.98 1013.36 1012.87 1012.10 1011.21 1010.24 1008.06 1006.66 1006.41 1005.59 1004.41 1003.16 1001.50 1000.16 999.41 999.40 999.80 1000.44 1000.81 1000.98 1001.84 1002.36 1002.76 1003.87 1005.24 1006.00 1006.85 1007.81 1008.59 1009.31 1009.98 1010.56 1011.37 1011.78
1016.53 1015.93 1015.06 1014.44 1013.64 1012.94 1012.31 1011.48 1010.68 1009.81 1008.68 1006.80 1006.38 1005.56 1004.71 1003.62 1002.19 1000.61 999.26 998.83 999.01 999.19 1000.09 1000.53 1000.69 1001.53 1002.09 1002.80 1003.69 1004.62 1005.60 1006.67 1007.45 1008.25 1008.99 1009.65 1010.33 1010.87
1016.57 1015.76 1014.62 1013.97 1012.99 1012.19 1011.59 1010.79 1010.01 1009.13 1008.50 1007.56 1006.10 1005.67 1004.41 1003.46 1002.18 1000.37 999.01 998.35 998.61 998.46 999.01 999.67 999.91 1000.14 1000.86 1001.63 1002.09 1002.98 1004.11 1005.36 1006.26 1007.16 1008.01 1008.63 1009.18 1009.96
1016.14 1015.16 1014.21 1013.46 1012.61 1011.85 1011.26 1010.51 1009.71 1008.75 1008.07 1007.22 1006.22 1005.23 1004.47 1003.18 1002.16 1000.49 998.54 997.69 997.58 997.82 997.88 997.81 998.85 999.26 999.62 1000.47 1001.41 1002.10 1002.60 1003.84 1004.95 1005.92 1006.87 1007.50 1008.23 1008.84
1015.49 1014.71 1013.90 1013.23 1012.56 1011.70 1010.95 1010.43 1009.69 1008.64 1007.64 1006.76 1005.73 1005.09 1004.36 1003.36 1001.70 999.97 998.46 997.26 996.42 996.65 997.23 997.53 998.40 998.24 998.97 999.23 1000.15 1001.15 1001.91 1002.50 1003.64 1004.76 1005.67 1006.32 1007.15 1007.76
1015.21 1014.43 1013.77 1012.81 1012.01 1011.54 1010.89 1010.74 1010.38 1009.29 1008.04 1006.99 1005.51 1004.50 1003.92 1003.36 1002.16 1000.82 998.93 997.31 995.86 995.59 995.82 996.44 997.03 996.98 997.43 998.48 998.48 999.99 1000.74 1001.70 1002.46 1003.63 1004.50 1005.37 1005.92 1006.66
1015.60 1014.74 1013.57 1012.66 1012.03 1011.39 1010.96 1010.32 1009.48 1008.56 1007.55 1006.54 1004.83 1003.82 1003.05 1002.97 1002.13 1000.47 999.25 997.80 995.76 994.89 995.31 996.08 996.64 997.20 997.86 997.64 997.84 998.46 999.38 1000.18 1001.36 1002.48 1003.39 1004.29 1004.85 1005.62
1016.00 1014.97 1014.02 1013.00 1012.15 1011.57 1010.46 1009.31 1008.23 1007.24 1006.21 1005.11 1004.00 1002.85 1002.11 1001.63 1001.03 999.67 998.64 997.68 996.03 994.79 994.33 996.27 997.58 998.27 998.81 997.96 997.49 997.58 998.11 999.12 1000.19 1001.23 1002.16 1003.13 1003.96 1004.86
1016.02 1015.20 1014.32 1013.40 1012.57 1011.46 1010.20 1008.70 1007.47 1006.10 1005.30 1004.28 1003.49 1002.39 1001.46 1000.83 1000.49 999.89 997.97 997.94 995.67 994.94 994.41 995.41 997.36 997.99 998.26 998.75 997.89 997.73 997.70 998.39 999.30 1000.33 1001.22 1002.30 1003.40 1004.56
1016.13 1015.28 1014.51 1013.51 1012.45 1011.24 1009.93 1008.70 1007.03 1005.71 1004.56 1002.74 1001.72 1000.48 999.77 998.83 998.22 998.13 997.43 996.22 995.21 994.15 993.23 994.06 995.79 996.40 997.81 997.82 998.82 998.48 998.45 998.40 999.02 999.84 1000.64 1001.81 1002.75 1004.08
1016.37 1015.39 1014.39 1013.35 1012.36 1011.19 1009.88 1008.54 1007.16 1005.72 1004.38 1002.97 1001.15 999.50 998.24 997.12 995.93 995.20 994.94 994.02 992.95 991.70 991.54 991.78 994.21 995.32 996.48 997.54 998.67 999.39 999.13 999.18 999.60 1000.52 1001.10 1001.76 1002.42 1002.72
1016.77 1015.78 1014.60 1013.37 1012.24 1011.18 1010.28 1009.20 1007.83 1006.21 1004.23 1002.42 1000.74 998.98 997.11 995.48 994.33 992.89 992.14 990.90 989.75 989.10 990.23 989.63 991.39 992.49 994.55 996.16 998.22 999.27 999.78 999.60 999.38 1000.37 1001.34 1002.17 1002.94 1003.50
1017.07 1015.84 1014.74 1013.63 1012.53 1011.19 1009.76 1008.35 1006.98 1005.50 1004.11 1002.43 1000.40 998.24 996.25 994.52 992.83 991.20 989.95 989.08 987.63 987.43 988.67 989.28 988.72 990.60 991.93 994.26 996.05 997.57 999.06 999.60 999.46 1000.14 1001.13 1001.85 1002.57 1003.56
1016.84 1015.85 1014.85 1013.91 1012.77 1011.49 1009.86 1008.43 1007.27 1005.86 1004.37 1002.64 1000.63 998.36 995.71 993.35 991.17 988.75 987.89 987.28 986.85 987.52 988.10 987.47 987.73 988.92 990.91 992.13 993.17 995.98 997.38 997.68 998.91 999.87 1000.78 1001.96 1002.76 1003.53
1017.04 1016.15 1014.99 1013.82 1012.60 1011.39 1010.15 1009.06 1007.54 1005.92 1004.21 1002.48 1000.47 998.04 995.21 992.67 989.90 987.32 985.82 985.48 985.42 986.81 987.79 988.10 988.01 989.15 989.80 990.83 993.04 993.91 995.33 996.91 998.18 999.25 1000.41 1001.73 1002.86 1003.56
1017.60 1016.76 1015.78 1014.86 1013.82 1012.62 1011.23 1009.62 1008.14 1006.57 1004.88 1002.98 1000.84 998.48 995.66 992.90 990.35 987.71 985.59 984.32 984.46 985.76 986.92 987.34 988.26 989.65 991.02 991.99 992.07 992.86 994.40 995.99 997.76 999.07 999.98 1001.07 1002.64 1003.68
1018.26 1017.53 1016.72 1015.69 1014.59 1013.41 1012.11 1010.66 1008.99 1007.36 1005.67 1003.61 1001.39 999.09 996.24 993.74 991.30 989.12 987.25 984.86 984.51 985.02 985.96 986.48 987.33 988.13 990.34 991.23 992.59 992.73 993.06 995.23 996.87 998.70 999.67 1000.49 1001.70 1003.16
1018.91 1018.15 1017.35 1016.38 1015.25 1014.01 1012.68 1011.24 1009.63 1007.92 1005.93 1003.93 1001.84 999.81 997.31 995.07 992.81 990.75 989.14 986.35 986.27 985.25 985.95 986.68 986.94 986.99 987.97 990.32 991.80 993.26 993.50 994.06 995.46 997.29 999.18 1001.01 1002.44 1003.32
1019.41 1018.70 1017.93 1017.05 1015.91 1014.68 1013.45 1012.10 1010.63 1008.82 1007.12 1005.28 1003.14 1000.77 998.23 995.64 993.96 992.45 988.94 987.98 988.39 986.83 986.67 987.20 987.51 987.79 987.91 989.71 991.69 993.04 994.55 995.15 995.46 995.66 997.76 999.54 1001.48 1003.19
1020.16 1019.34 1018.36 1017.60 1016.55 1015.35 1014.07 1012.81 1011.23 1009.65 1008.00 1006.22 1004.13 1001.71 999.29 997.23 995.32 993.19 991.84 991.07 990.74 989.14 988.24 988.25 988.30 988.25 989.28 989.47 991.21 992.45 994.19 995.62 996.85 998.50 998.16 997.50 999.20 1001.37
1020.79 1019.94 1018.97 1018.14 1017.24 1016.06 1014.86 1013.61 1012.29 1010.85 1009.24 1007.42 1005.36 1002.93 1000.56 998.43 996.47 994.73 993.47 992.53 991.70 990.29 989.84 989.50 989.37 989.40 990.18 990.96 991.82 993.27 994.40 996.00 997.46 998.90 999.65 999.38 1000.33 1001.13
Thickness
5468 5470 5472 5474 5477 5483 5488 5493 5503 5532 5549 5550 5550 5557 5571 5584 5598 5597 5594 5597 5606 5613 5616 5624 5627 5627 5621 5618 5616 5614 5611 5607 5606 5605 5604 5602 5600 5602
5447 5450 5452 5456 5462 5465 5470 5479 5486 5503 5530 5533 5538 5541 5552 5568 5582 5592 5595 5595 5602 5608 5614 5616 5621 5621 5623 5616 5614 5613 5610 5607 5607 5604 5602 5602 5599 5602
5425 5429 5435 5438 5447 5451 5455 5463 5472 5482 5505 5520 5523 5526 5537 5549 5567 5581 5590 5596 5601 5601 5604 5614 5614 5617 5620 5617 5614 5613 5611 5607 5606 5603 5602 5602 5599 5602
5406 5409 5417 5422 5429 5436 5441 5451 5460 5469 5481 5500 5508 5515 5521 5531 5547 5565 5580 5589 5593 5598 5596 5602 5610 5611 5614 5616 5616 5615 5612 5608 5606 5604 5602 5602 5601 5602
5386 5391 5400 5406 5415 5422 5429 5438 5448 5458 5466 5476 5492 5500 5512 5519 5532 5552 5570 5581 5580 5590 5591 5592 5602 5609 5612 5612 5615 5616 5613 5610 5607 5604 5602 5603 5604 5602
5370 5377 5384 5391 5399 5406 5413 5422 5432 5443 5452 5462 5474 5486 5496 5508 5516 5536 5557 5572 5579 5577 5584 5591 5598 5602 5607 5608 5611 5611 5614 5612 5608 5605 5602 5604 5603 5604
5358 5362 5368 5372 5379 5387 5397 5404 5414 5425 5436 5448 5460 5468 5479 5490 5508 5525 5542 5559 5573 5575 5576 5585 5585 5596 5599 5604 5608 5604 5608 5611 5609 5605 5604 5606 5603 5605
5340 5344 5348 5355 5363 5369 5378 5380 5387 5398 5412 5424 5443 5456 5465 5472 5484 5498 5520 5543 5562 5568 5574 5581 5578 5584 5599 5600 5613 5605 5607 5608 5608 5605 5604 5603 5604 5604
5311 5317 5326 5333 5339 5349 5356 5363 5374 5384 5397 5410 5428 5444 5455 5459 5467 5483 5497 5521 5547 5555 5558 5564 5563 5572 5572 5591 5603 5606 5606 5608 5606 5603 5602 5600 5604 5602
5287 5292 5298 5306 5313 5320 5335 5348 5362 5375 5387 5402 5418 5434 5444 5453 5459 5472 5487 5501 5524 5536 5550 5552 5542 5550 5553 5574 5592 5601 5604 5603 5602 5601 5601 5598 5598 5595
5273 5274 5278 5282 5286 5296 5311 5326 5342 5359 5371 5386 5399 5415 5429 5439 5444 5452 5476 5474 5509 5521 5533 5537 5530 5538 5545 5554 5575 5586 5595 5597 5597 5595 5596 5594 5591 5587
5259 5261 5263 5267 5272 5279 5288 5299 5318 5334 5349 5372 5389 5407 5420 5435 5445 5449 5459 5470 5489 5502 5528 5533 5527 5534 5537 5544 5551 5566 5575 5583 5586 5587 5588 5586 5584 5579
5244 5249 5253 5257 5260 5265 5273 5282 5293 5307 5322 5341 5366 5389 5408 5426 5443 5453 5460 5470 5485 5512 5523 5524 5523 5528 5528 5533 5535 5542 5555 5564 5570 5569 5571 5573 5574 5577
5226 5232 5239 5245 5250 5253 5255 5261 5267 5277 5296 5318 5341 5367 5393 5415 5435 5454 5464 5480 5498 5514 5514 5530 5528 5538 5532 5528 5523 5528 5535 5548 5559 5557 5556 5557 5557 5558
5208 5218 5225 5231 5237 5243 5249 5256 5261 5270 5279 5295 5320 5350 5378 5401 5425 5448 5466 5481 5500 5509 5515 5519 5539 5539 5541 5533 5530 5531 5530 5536 5547 5547 5546 5548 5548 5546
5199 5205 5212 5218 5224 5231 5238 5244 5247 5254 5262 5275 5299 5329 5363 5391 5421 5453 5470 5488 5498 5496 5503 5524 5535 5537 5536 5538 5543 5530 5529 5538 5538 5537 5536 5532 5532 5532
5191 5194 5202 5210 5218 5223 5227 5229 5235 5243 5253 5266 5285 5315 5349 5380 5415 5448 5475 5481 5498 5496 5495 5504 5517 5519 5532 5537 5529 5534 5531 5528 5527 5526 5524 5521 5518 5518
5179 5180 5186 5193 5198 5205 5211 5218 5223 5229 5237 5251 5272 5299 5332 5365 5396 5426 5459 5483 5494 5495 5492 5497 5503 5506 5507 5511 5523 5528 5525 5522 5517 5515 5514 5513 5507 5504
5166 5167 5170 5177 5184 5190 5197 5202 5210 5216 5222 5236 5259 5285 5318 5347 5376 5402 5428 5462 5482 5490 5493 5498 5506 5518 5509 5508 5504 5517 5525 5516 5511 5504 5504 5505 5502 5496
5156 5156 5158 5163 5171 5179 5186 5194 5201 5208 5218 5229 5248 5270 5299 5324 5349 5374 5394 5430 5452 5474 5481 5485 5497 5513 5521 5504 5504 5502 5507 5510 5508 5501 5493 5484 5480 5477
5151 5147 5147 5151 5158 5167 5174 5181 5189 5199 5206 5215 5232 5256 5285 5314 5336 5355 5392 5411 5419 5446 5461 5464 5470 5480 5492 5486 5486 5485 5482 5487 5493 5499 5488 5481 5473 5463
5143 5140 5140 5140 5146 5155 5163 5171 5182 5190 5198 5207 5222 5247 5274 5299 5322 5346 5366 5382 5393 5416 5431 5439 5452 5465 5467 5480 5478 5474 5470 5466 5466 5458 5467 5481 5476 5462
5138 5134 5132 5132 5134 5141 5151 5159 5168 5178 5186 5197 5211 5233 5259 5283 5306 5328 5346 5362 5375 5394 5406 5421 5433 5444 5445 5449 5452 5451 5448 5445 5443 5439 5441 5451 5451 5451